Regional Weather Roundup
Issued by NWS Cleveland, OH

Home | Current Version | Previous Version | Graphics & Text | Print | Product List | Glossary On
Versions: 1 2 3 4 5 6 7 8 9 10 11 12 13 14 15 16 17 18 19 20 21 22 23 24 25 26 27 28 29 30 31 32 33 34 35 36 37 38 39 40 41 42 43 44 45 46 47 48 49 50
819
ASUS41 KCLE 270000
RWRCLE
OHIO REGIONAL WEATHER ROUNDUP
NATIONAL WEATHER SERVICE WILMINGTON, OH
800 PM EDT THU APR 26 2018

NOTE: "FAIR" INDICATES FEW OR NO CLOUDS BELOW 12,000 FEET WITH NO
SIGNIFICANT WEATHER AND/OR OBSTRUCTIONS TO VISIBILITY.

OHZ001>008-015>018-024>027-034-035-043-044-270100-
   NORTHWEST OHIO

CITY           SKY/WX    TMP DP  RH WIND       PRES   REMARKS
DEFIANCE       FAIR      62  33  33 CALM      29.85S
FINDLAY        FAIR      61  38  42 NW3       29.85S
TOLEDO EXPRESS FAIR      62  34  35 W5        29.85S
TOLEDO EXEC    FAIR      58  40  51 E8        29.86S
LIMA           FAIR      61  38  42 CALM      29.85S
$$

OHZ009>014-019>023-028>033-038-089-270100-
   NORTHEAST OHIO

CITY           SKY/WX    TMP DP  RH WIND       PRES   REMARKS
CLE-HOPKINS    FAIR      52  34  50 NE5       29.91S
CLE-LAKEFRONT  FAIR      50  37  61 NE3       29.89S
CUY CO. ARPT   MOCLDY    52  37  58 N6        29.90S
LORAIN-ELYRIA  FAIR      53  33  46 NE12      29.89S
ASHTABULA      FAIR      50  32  50 CALM      29.90S
AKRON-CANTON   FAIR      60  34  37 CALM      29.87S
WOOSTER        NOT AVBL
MANSFIELD      FAIR      58  39  49 N3        29.87R
YOUNGSTOWN     MOCLDY    56  39  53 N10       29.87R
$$

OHZ042-051>053-060>062-070>072-077>081-270100-
  SOUTHWEST OHIO

CITY           SKY/WX    TMP DP  RH WIND       PRES   REMARKS
CINC-COVINGTON MOCLDY    65  31  28 CALM      29.83F
CINC-LUNKEN    FAIR      65  35  33 CALM      29.83F
HAMILTON       FAIR      67  31  26 NE3       29.84F
DAYTON         NOT AVBL
WRIGHT-PAT AFB MOCLDY    64  37  36 NE5       29.83F
DAYTON GENERAL FAIR      66  30  26 CALM      29.83F
WILMINGTON     FAIR      64  40  41 W5        29.83F
$$

OHZ036-037-039>041-045>050-054>059-063>069-073>076-082>088-270100-
  CENTRAL AND SOUTHEAST OHIO

CITY           SKY/WX    TMP DP  RH WIND       PRES   REMARKS
COLUMBUS       CLOUDY    64  39  39 CALM      29.84S
OSU AIRPORT    FAIR      62  41  46 CALM      29.84S
BOLTON FIELD   NOT AVBL
RICKENBACK AFB NOT AVBL
NEWARK         FAIR      62  43  49 CALM      29.84F
MARION         FAIR      60  37  42 CALM      29.86S
LANCASTER      FAIR      60  51  72 E5        29.84F
ZANESVILLE     FAIR      61  40  45 E3        29.86S
NEW PHILLY     FAIR      59  38  45 CALM      29.88R
$$




USA.gov is the U.S. government's official web portal to all federal, state and local government web resources and services.